| time (UTC) | temp C | wind direction | speed KPH | gust KPH | rain 1hr cm | rain 24hr cm | rain mn cm | humidity % | barometer mb |
| 20260506102003 | 11 | 71 | 4.8 | 9.7 | 0.00 | 0.00 | 0.00 | 86 | 1017.4 |
| 20260506101003 | 11 | 70 | 4.8 | 9.7 | 0.00 | 0.00 | 0.00 | 85 | 1017.4 |
| 20260506100003 | 11 | 72 | 4.8 | 9.7 | 0.00 | 0.00 | 0.00 | 86 | 1017.4 |
| 20260506095003 | 11 | 77 | 4.8 | 8.0 | 0.00 | 0.00 | 0.00 | 86 | 1017.5 |
| 20260506094003 | 11 | 81 | 4.8 | 8.0 | 0.00 | 0.00 | 0.00 | 86 | 1017.7 |
| 20260506093003 | 11 | 80 | 3.2 | 8.0 | 0.00 | 0.00 | 0.00 | 86 | 1017.7 |
| 20260506092003 | 11 | 79 | 3.2 | 6.4 | 0.00 | 0.00 | 0.00 | 86 | 1017.6 |
| 20260506091003 | 11 | 80 | 4.8 | 8.0 | 0.00 | 0.00 | 0.00 | 85 | 1017.8 |
| 20260506090003 | 11 | 80 | 3.2 | 8.0 | 0.00 | 0.00 | 0.00 | 85 | 1017.9 |
| 20260506085003 | 11 | 80 | 3.2 | 8.0 | 0.00 | 0.00 | 0.00 | 85 | 1017.9 |
| 20260506084003 | 11 | 76 | 4.8 | 8.0 | 0.00 | 0.00 | 0.00 | 85 | 1017.9 |
| 20260506083003 | 11 | 62 | 4.8 | 9.7 | 0.00 | 0.00 | 0.00 | 86 | 1018.1 |
| 20260506082004 | 11 | 78 | 4.8 | 8.0 | 0.00 | 0.00 | 0.00 | 85 | 1018.1 |
| 20260506081005 | 11 | 90 | 4.8 | 8.0 | 0.00 | 0.00 | 0.00 | 85 | 1018.1 |
| 20260506073025 | 12 | 109 | 3.2 | 6.4 | 0.00 | 0.00 | 0.00 | 85 | 1018.1 |
| 20260506072025 | 12 | 109 | 3.2 | 6.4 | 0.00 | 0.00 | 0.00 | 85 | 1018.1 |
| 20260506071004 | 12 | 110 | 3.2 | 6.4 | 0.00 | 0.00 | 0.00 | 84 | 1018.0 |
| 20260506062025 | 12 | 117 | 3.2 | 9.7 | 0.00 | 0.00 | 0.00 | 83 | 1017.4 |
| 20260506061004 | 13 | 117 | 1.6 | 4.8 | 0.00 | 0.00 | 0.00 | 83 | 1017.3 |
| 20260506051004 | 13 | 0 | 0.0 | 0.0 | 0.00 | 0.00 | 0.00 | 81 | 1017.0 |
| 20260506045004 | 13 | 0 | 0.0 | 0.0 | 0.00 | 0.00 | 0.00 | 81 | 1016.7 |
| 20260506044004 | 13 | 0 | 0.0 | 0.0 | 0.00 | 0.00 | 0.00 | 81 | 1016.7 |
| 20260506043004 | 14 | 209 | 1.6 | 4.8 | 0.00 | 0.00 | 0.00 | 81 | 1016.6 |
| 20260506042004 | 14 | 209 | 1.6 | 4.8 | 0.00 | 0.00 | 0.00 | 80 | 1016.5 |
| 20260506041004 | 14 | 210 | 1.6 | 6.4 | 0.00 | 0.00 | 0.00 | 80 | 1016.2 |
| 20260506040004 | 14 | 210 | 3.2 | 8.0 | 0.00 | 0.00 | 0.00 | 80 | 1016.2 |
| 20260506035004 | 14 | 212 | 3.2 | 6.4 | 0.00 | 0.00 | 0.00 | 79 | 1016.0 |
| 20260506034025 | 14 | 220 | 4.8 | 9.7 | 0.00 | 0.00 | 0.00 | 79 | 1015.8 |
| 20260506033025 | 15 | 192 | 3.2 | 9.7 | 0.00 | 0.00 | 0.00 | 78 | 1015.7 |
| 20260506032004 | 15 | 225 | 4.8 | 11.3 | 0.00 | 0.00 | 0.00 | 78 | 1015.5 |
| 20260506031004 | 15 | 245 | 4.8 | 9.7 | 0.00 | 0.00 | 0.00 | 76 | 1015.4 |
| 20260506030025 | 15 | 233 | 4.8 | 11.3 | 0.00 | 0.00 | 0.00 | 76 | 1015.2 |
| 20260506025004 | 15 | 237 | 4.8 | 12.9 | 0.00 | 0.00 | 0.00 | 74 | 1015.1 |
| 20260506024004 | 16 | 194 | 4.8 | 14.5 | 0.00 | 0.00 | 0.00 | 73 | 1014.9 |
| 20260506023004 | 16 | 206 | 6.4 | 11.3 | 0.00 | 0.00 | 0.00 | 72 | 1014.8 |
| 20260506022004 | 16 | 202 | 6.4 | 12.9 | 0.00 | 0.00 | 0.00 | 71 | 1014.7 |
| 20260506021004 | 16 | 215 | 4.8 | 16.1 | 0.00 | 0.00 | 0.00 | 70 | 1014.6 |
| 20260506015025 | 17 | 237 | 6.4 | 14.5 | 0.00 | 0.00 | 0.00 | 69 | 1014.6 |
| 20260506014025 | 17 | 240 | 4.8 | 12.9 | 0.00 | 0.00 | 0.00 | 68 | 1014.5 |
| 20260506012004 | 17 | 222 | 6.4 | 17.7 | 0.00 | 0.00 | 0.00 | 66 | 1014.6 |
| 20260506011004 | 17 | 233 | 6.4 | 16.1 | 0.00 | 0.00 | 0.00 | 67 | 1014.6 |
| 20260506010004 | 17 | 225 | 8.0 | 19.3 | 0.00 | 0.00 | 0.00 | 65 | 1014.6 |
| 20260506005004 | 17 | 237 | 8.0 | 22.5 | 0.00 | 0.00 | 0.00 | 66 | 1014.6 |
| 20260506003004 | 17 | 244 | 9.7 | 19.3 | 0.00 | 0.00 | 0.00 | 70 | 1014.4 |
| 20260506002004 | 17 | 233 | 9.7 | 17.7 | 0.00 | 0.00 | 0.00 | 68 | 1014.4 |
| 20260506001004 | 17 | 249 | 8.0 | 19.3 | 0.00 | 0.00 | 0.00 | 67 | 1014.5 |
| 20260506000004 | 18 | 257 | 8.0 | 20.9 | 0.00 | 0.00 | 0.00 | 66 | 1014.5 |
| 20260505235004 | 18 | 242 | 9.7 | 16.1 | 0.00 | 0.00 | 0.00 | 64 | 1014.4 |
| 20260505234004 | 19 | 254 | 9.7 | 19.3 | 0.00 | 0.00 | 0.00 | 62 | 1014.3 |
| 20260505233004 | 20 | 269 | 8.0 | 20.9 | 0.00 | 0.00 | 0.00 | 58 | 1014.3 |
| 20260505231025 | 21 | 257 | 11.3 | 22.5 | 0.00 | 0.00 | 0.00 | 57 | 1014.2 |
| 20260505230004 | 21 | 259 | 9.7 | 22.5 | 0.00 | 0.00 | 0.00 | 57 | 1014.1 |
| 20260505225004 | 20 | 262 | 8.0 | 19.3 | 0.00 | 0.00 | 0.00 | 60 | 1014.3 |
| 20260505224025 | 20 | 269 | 8.0 | 19.3 | 0.00 | 0.00 | 0.00 | 60 | 1014.4 |
| 20260505223025 | 20 | 251 | 8.0 | 22.5 | 0.00 | 0.00 | 0.00 | 57 | 1014.5 |
| 20260505222025 | 20 | 267 | 8.0 | 19.3 | 0.00 | 0.00 | 0.00 | 56 | 1014.4 |
| 20260505221025 | 20 | 268 | 9.7 | 20.9 | 0.00 | 0.00 | 0.00 | 55 | 1014.5 |
| 20260505220004 | 20 | 257 | 8.0 | 20.9 | 0.00 | 0.00 | 0.00 | 53 | 1014.5 |
| 20260505215004 | 20 | 290 | 9.7 | 22.5 | 0.00 | 0.00 | 0.00 | 55 | 1014.7 |
| 20260505214004 | 20 | 255 | 9.7 | 30.6 | 0.00 | 0.00 | 0.00 | 56 | 1014.8 |
| 20260505213004 | 20 | 255 | 11.3 | 29.0 | 0.00 | 0.00 | 0.00 | 57 | 1015.0 |
| 20260505210004 | 21 | 266 | 8.0 | 16.1 | 0.00 | 0.00 | 0.00 | 54 | 1014.9 |
| 20260505205004 | 20 | 277 | 9.7 | 20.9 | 0.00 | 0.00 | 0.00 | 53 | 1015.0 |
| 20260505204025 | 21 | 276 | 9.7 | 25.7 | 0.00 | 0.00 | 0.00 | 51 | 1015.0 |
| 20260505203004 | 21 | 235 | 9.7 | 20.9 | 0.00 | 0.00 | 0.00 | 48 | 1014.9 |
| 20260505202004 | 21 | 245 | 9.7 | 22.5 | 0.00 | 0.00 | 0.00 | 50 | 1014.9 |
| 20260505201004 | 21 | 244 | 6.4 | 22.5 | 0.00 | 0.00 | 0.00 | 51 | 1015.0 |
| 20260505200004 | 20 | 212 | 6.4 | 17.7 | 0.00 | 0.00 | 0.00 | 52 | 1015.0 |
| 20260505195004 | 20 | 260 | 8.0 | 19.3 | 0.00 | 0.00 | 0.00 | 54 | 1015.1 |
| 20260505194004 | 20 | 248 | 8.0 | 19.3 | 0.00 | 0.00 | 0.00 | 55 | 1015.3 |
| 20260505193025 | 20 | 241 | 8.0 | 22.5 | 0.00 | 0.00 | 0.00 | 54 | 1015.4 |
| 20260505192025 | 20 | 243 | 8.0 | 17.7 | 0.00 | 0.00 | 0.00 | 54 | 1015.4 |
| 20260505191004 | 21 | 240 | 9.7 | 22.5 | 0.00 | 0.00 | 0.00 | 55 | 1015.3 |
| 20260505190004 | 21 | 250 | 8.0 | 17.7 | 0.00 | 0.00 | 0.00 | 54 | 1015.3 |
| 20260505185004 | 21 | 254 | 6.4 | 16.1 | 0.00 | 0.00 | 0.00 | 52 | 1015.1 |
| 20260505184004 | 21 | 237 | 6.4 | 19.3 | 0.00 | 0.00 | 0.00 | 53 | 1015.1 |
| 20260505183004 | 21 | 240 | 6.4 | 14.5 | 0.00 | 0.00 | 0.00 | 51 | 1015.1 |
| 20260505182004 | 20 | 257 | 6.4 | 16.1 | 0.00 | 0.00 | 0.00 | 54 | 1015.0 |
| 20260505181004 | 20 | 234 | 4.8 | 17.7 | 0.00 | 0.00 | 0.00 | 54 | 1015.1 |
| 20260505180004 | 20 | 241 | 4.8 | 12.9 | 0.00 | 0.00 | 0.00 | 56 | 1014.9 |
| 20260505175004 | 20 | 190 | 6.4 | 12.9 | 0.00 | 0.00 | 0.00 | 58 | 1015.0 |
| 20260505173004 | 20 | 225 | 4.8 | 14.5 | 0.00 | 0.00 | 0.00 | 55 | 1015.0 |
| 20260505172004 | 19 | 215 | 4.8 | 12.9 | 0.00 | 0.00 | 0.00 | 59 | 1014.8 |
| 20260505171003 | 19 | 239 | 4.8 | 8.0 | 0.00 | 0.00 | 0.00 | 59 | 1014.7 |
| 20260505170004 | 18 | 230 | 4.8 | 12.9 | 0.00 | 0.00 | 0.00 | 58 | 1014.7 |
| 20260505165004 | 18 | 193 | 3.2 | 8.0 | 0.00 | 0.00 | 0.00 | 59 | 1014.7 |
| 20260505164004 | 18 | 208 | 3.2 | 11.3 | 0.00 | 0.00 | 0.00 | 62 | 1014.6 |
| 20260505163025 | 17 | 246 | 3.2 | 9.7 | 0.00 | 0.00 | 0.00 | 65 | 1014.6 |
| 20260505162004 | 17 | 237 | 3.2 | 9.7 | 0.00 | 0.00 | 0.00 | 68 | 1014.5 |
| 20260505161025 | 17 | 243 | 3.2 | 6.4 | 0.00 | 0.00 | 0.00 | 71 | 1014.5 |
| 20260505153025 | 15 | 167 | 3.2 | 9.7 | 0.00 | 0.00 | 0.00 | 81 | 1014.3 |
| 20260505152004 | 14 | 147 | 1.6 | 4.8 | 0.00 | 0.00 | 0.00 | 86 | 1014.2 |
| 20260505151003 | 13 | 0 | 3.2 | 3.2 | 0.00 | 0.00 | 0.00 | 87 | 1014.3 |
| 20260505125004 | 11 | 0 | 0.0 | 0.0 | 0.00 | 0.00 | 0.00 | 86 | 1013.9 |
| 20260505124003 | 11 | 0 | 0.0 | 0.0 | 0.00 | 0.00 | 0.00 | 85 | 1013.9 |
| 20260505123003 | 11 | 0 | 0.0 | 0.0 | 0.00 | 0.00 | 0.00 | 85 | 1014.0 |
| 20260505122003 | 11 | 0 | 0.0 | 0.0 | 0.00 | 0.00 | 0.00 | 85 | 1014.0 |
| 20260505121003 | 11 | 231 | 1.6 | 4.8 | 0.00 | 0.00 | 0.00 | 85 | 1013.9 |
| 20260505120004 | 11 | 0 | 0.0 | 3.2 | 0.00 | 0.00 | 0.00 | 84 | 1014.0 |
| 20260505115004 | 11 | 0 | 0.0 | 3.2 | 0.00 | 0.00 | 0.00 | 84 | 1014.0 |
| 20260505114003 | 11 | 0 | 0.0 | 3.2 | 0.00 | 0.00 | 0.00 | 83 | 1014.1 |
| 20260505113003 | 12 | 0 | 0.0 | 0.0 | 0.00 | 0.00 | 0.00 | 83 | 1014.0 |
| 20260505112024 | 12 | 0 | 0.0 | 0.0 | 0.00 | 0.00 | 0.00 | 82 | 1014.0 |
| 20260505111003 | 12 | 0 | 0.0 | 0.0 | 0.00 | 0.00 | 0.00 | 81 | 1014.1 |